FRS146 EDXB-EDXW

Flight info

Callsign FRS146
Flight time 0h 36m
Altitude 2500
Route EDXB DCT EDXW
Aircraft PA24/L-SDGY/7000

Departure

Time 2026-05-06 18:25
Airport Heide-Büsum Airport (EDXB)

Arrival

Time 2026-05-06 19:01
Airport Westerland Sylt Airport (EDXW)
Time Latitude Longitude Altitude Speed Heading
2026-05-06 17:58 54.15312 8.89644 10 ft 0 kts 15°
2026-05-06 18:18 54.15317 8.89646 10 ft 5 kts 11°
2026-05-06 18:19 54.15359 8.89663 10 ft 5 kts 27°
2026-05-06 18:19 54.15387 8.89699 10 ft 5 kts 79°
2026-05-06 18:19 54.15373 8.89785 10 ft 10 kts 107°
2026-05-06 18:19 54.15352 8.89888 10 ft 9 kts 108°
2026-05-06 18:20 54.15328 8.90001 10 ft 11 kts 108°
2026-05-06 18:20 54.15303 8.90121 10 ft 10 kts 111°
2026-05-06 18:20 54.15279 8.90242 10 ft 12 kts 110°
2026-05-06 18:20 54.15252 8.90372 10 ft 11 kts 111°
2026-05-06 18:21 54.15224 8.90507 10 ft 12 kts 108°
2026-05-06 18:21 54.15203 8.90612 10 ft 7 kts 109°
2026-05-06 18:21 54.15199 8.90635 10 ft 0 kts 102°
2026-05-06 18:22 54.15198 8.90652 10 ft 4 kts 84°
2026-05-06 18:22 54.15216 8.90674 10 ft 4 kts 15°
2026-05-06 18:22 54.15239 8.90661 10 ft 4 kts 294°
2026-05-06 18:23 54.15243 8.90646 10 ft 0 kts 291°
2026-05-06 18:23 54.15274 8.90493 10 ft 42 kts 288°
2026-05-06 18:24 54.15418 8.89784 45 ft 72 kts 288°
2026-05-06 18:24 54.15580 8.88984 233 ft 69 kts 282°
2026-05-06 18:24 54.15758 8.88203 379 ft 74 kts 298°
2026-05-06 18:24 54.16161 8.87716 530 ft 78 kts 349°
2026-05-06 18:25 54.16697 8.87730 661 ft 83 kts
2026-05-06 18:25 54.17052 8.87907 789 ft 82 kts 16°
2026-05-06 18:25 54.17674 8.88268 799 ft 101 kts
2026-05-06 18:25 54.18569 8.88261 1051 ft 98 kts 350°
2026-05-06 18:26 54.19037 8.88208 1123 ft 101 kts 358°
2026-05-06 18:26 54.19934 8.88436 1345 ft 101 kts
2026-05-06 18:26 54.20399 8.88622 1453 ft 101 kts 10°
2026-05-06 18:26 54.21078 8.88798 1621 ft 100 kts
2026-05-06 18:27 54.21767 8.89018 1778 ft 100 kts
2026-05-06 18:27 54.22463 8.89207 1904 ft 103 kts
2026-05-06 18:27 54.23156 8.89525 2087 ft 101 kts 11°
2026-05-06 18:27 54.23849 8.89841 2188 ft 106 kts 11°
2026-05-06 18:28 54.24568 8.90033 2307 ft 104 kts
2026-05-06 18:28 54.25300 8.90248 2346 ft 107 kts
2026-05-06 18:28 54.26004 8.90541 2431 ft 106 kts 16°
2026-05-06 18:28 54.26717 8.90939 2493 ft 106 kts 13°
2026-05-06 18:29 54.27436 8.91184 2561 ft 107 kts
2026-05-06 18:29 54.28171 8.91425 2628 ft 106 kts
2026-05-06 18:29 54.28905 8.91599 2667 ft 108 kts
2026-05-06 18:29 54.29636 8.91904 2741 ft 107 kts 14°
2026-05-06 18:30 54.30367 8.92305 2720 ft 114 kts 16°
2026-05-06 18:30 54.31109 8.92696 2804 ft 111 kts 14°
2026-05-06 18:30 54.31880 8.93081 2788 ft 116 kts 13°
2026-05-06 18:30 54.32641 8.93415 2881 ft 112 kts 10°
2026-05-06 18:31 54.33429 8.93656 2888 ft 115 kts
2026-05-06 18:31 54.34216 8.93787 2968 ft 112 kts
2026-05-06 18:31 54.35008 8.93818 2985 ft 115 kts 357°
2026-05-06 18:31 54.35789 8.93735 3048 ft 113 kts 353°
2026-05-06 18:32 54.36582 8.93660 3074 ft 114 kts 355°
2026-05-06 18:32 54.37365 8.93604 3126 ft 113 kts 355°
2026-05-06 18:32 54.38171 8.93527 3146 ft 115 kts 354°
2026-05-06 18:32 54.38961 8.93401 3195 ft 114 kts 352°
2026-05-06 18:33 54.39768 8.93247 3197 ft 117 kts 352°
2026-05-06 18:33 54.40559 8.93101 3254 ft 115 kts 353°
2026-05-06 18:33 54.41275 8.93165 3228 ft 119 kts
2026-05-06 18:33 54.42048 8.93594 3296 ft 116 kts 19°
2026-05-06 18:34 54.42810 8.94137 3265 ft 122 kts 23°
2026-05-06 18:34 54.43585 8.94773 3266 ft 123 kts 24°
2026-05-06 18:34 54.44347 8.95413 3257 ft 125 kts 24°
2026-05-06 18:34 54.45143 8.96074 3265 ft 124 kts 24°
2026-05-06 18:35 54.45924 8.96708 3244 ft 127 kts 23°
2026-05-06 18:35 54.46727 8.97387 3247 ft 127 kts 26°
2026-05-06 18:35 54.47498 8.98146 3214 ft 130 kts 30°
2026-05-06 18:35 54.48255 8.98991 3195 ft 130 kts 33°
2026-05-06 18:36 54.48996 8.99904 3169 ft 131 kts 35°
2026-05-06 18:36 54.49713 9.00856 3161 ft 130 kts 37°
2026-05-06 18:36 54.50424 9.01847 3139 ft 131 kts 38°
2026-05-06 18:36 54.51121 9.02849 3132 ft 131 kts 39°
2026-05-06 18:37 54.51815 9.03877 3117 ft 131 kts 40°
2026-05-06 18:37 54.52492 9.04902 3106 ft 131 kts 40°
2026-05-06 18:37 54.53171 9.05946 3092 ft 131 kts 40°
2026-05-06 18:37 54.53851 9.07002 3076 ft 131 kts 41°
2026-05-06 18:38 54.54522 9.08074 3061 ft 131 kts 43°
2026-05-06 18:38 54.55134 9.09213 3050 ft 131 kts 49°
2026-05-06 18:38 54.55694 9.10469 3043 ft 131 kts 53°
2026-05-06 18:38 54.56209 9.11758 3033 ft 132 kts 52°
2026-05-06 18:39 54.56834 9.12890 3017 ft 132 kts 39°
2026-05-06 18:39 54.57597 9.13771 3011 ft 130 kts 26°
2026-05-06 18:39 54.58439 9.14355 2997 ft 130 kts 15°
2026-05-06 18:40 54.60219 9.14778 2934 ft 131 kts
2026-05-06 18:40 54.61131 9.14852 2918 ft 130 kts
2026-05-06 18:40 54.62030 9.14951 2889 ft 130 kts
2026-05-06 18:40 54.62932 9.15066 2855 ft 130 kts
2026-05-06 18:41 54.63832 9.15194 2788 ft 134 kts
2026-05-06 18:41 54.64779 9.15358 2706 ft 135 kts
2026-05-06 18:41 54.65713 9.15549 2628 ft 136 kts
2026-05-06 18:41 54.66653 9.15767 2560 ft 136 kts
2026-05-06 18:42 54.67590 9.15995 2503 ft 135 kts
2026-05-06 18:42 54.68543 9.15977 2414 ft 136 kts 351°
2026-05-06 18:42 54.69446 9.15618 2376 ft 134 kts 340°
2026-05-06 18:42 54.70306 9.14988 2306 ft 134 kts 331°
2026-05-06 18:43 54.71098 9.14167 2243 ft 133 kts 324°
2026-05-06 18:43 54.71827 9.13201 2182 ft 133 kts 318°
2026-05-06 18:43 54.72508 9.12111 2119 ft 132 kts 314°
2026-05-06 18:43 54.73173 9.11006 2064 ft 132 kts 315°
2026-05-06 18:44 54.73841 9.09931 1998 ft 132 kts 316°
2026-05-06 18:44 54.74525 9.08851 1942 ft 132 kts 316°
2026-05-06 18:44 54.75194 9.07807 1882 ft 132 kts 316°
2026-05-06 18:44 54.75886 9.06736 1824 ft 132 kts 317°
2026-05-06 18:45 54.76562 9.05695 1769 ft 131 kts 317°
2026-05-06 18:45 54.77251 9.04627 1712 ft 131 kts 316°
2026-05-06 18:45 54.77915 9.03576 1660 ft 131 kts 314°
2026-05-06 18:45 54.78538 9.02420 1604 ft 131 kts 309°
2026-05-06 18:46 54.79103 9.01171 1554 ft 130 kts 305°
2026-05-06 18:46 54.79631 8.99900 1499 ft 130 kts 304°
2026-05-06 18:46 54.80151 8.98616 1443 ft 130 kts 304°
2026-05-06 18:46 54.80665 8.97343 1387 ft 130 kts 304°
2026-05-06 18:47 54.81184 8.96070 1338 ft 130 kts 304°
2026-05-06 18:47 54.81709 8.94802 1285 ft 129 kts 305°
2026-05-06 18:47 54.82243 8.93533 1230 ft 129 kts 305°
2026-05-06 18:47 54.82770 8.92296 1219 ft 127 kts 305°
2026-05-06 18:48 54.83302 8.91055 1162 ft 128 kts 306°
2026-05-06 18:48 54.83824 8.89847 1160 ft 126 kts 306°
2026-05-06 18:48 54.84297 8.88761 1116 ft 126 kts 306°
2026-05-06 18:48 54.84737 8.87761 1062 ft 126 kts 306°
2026-05-06 18:49 54.85258 8.86589 1133 ft 119 kts 307°
2026-05-06 18:49 54.85781 8.85470 1162 ft 117 kts 308°
2026-05-06 18:49 54.86301 8.84413 1195 ft 116 kts 309°
2026-05-06 18:49 54.86829 8.83319 1195 ft 117 kts 304°
2026-05-06 18:50 54.87173 8.82063 1204 ft 118 kts 283°
2026-05-06 18:50 54.87255 8.80639 1211 ft 117 kts 274°
2026-05-06 18:50 54.87392 8.79234 1174 ft 120 kts 284°
2026-05-06 18:50 54.87613 8.77839 1180 ft 120 kts 287°
2026-05-06 18:51 54.87877 8.76466 1164 ft 120 kts 288°
2026-05-06 18:51 54.88137 8.75072 1141 ft 120 kts 287°
2026-05-06 18:51 54.88341 8.73674 1118 ft 121 kts 280°
2026-05-06 18:51 54.88459 8.72221 1096 ft 120 kts 275°
2026-05-06 18:52 54.88515 8.70783 1069 ft 120 kts 274°
2026-05-06 18:52 54.88597 8.69331 1051 ft 120 kts 276°
2026-05-06 18:52 54.88671 8.67906 1028 ft 119 kts 274°
2026-05-06 18:52 54.88687 8.66456 1011 ft 119 kts 270°
2026-05-06 18:53 54.88677 8.65027 990 ft 119 kts 268°
2026-05-06 18:53 54.88632 8.63574 968 ft 119 kts 266°
2026-05-06 18:53 54.88572 8.62145 949 ft 119 kts 267°
2026-05-06 18:53 54.88540 8.60693 932 ft 120 kts 268°
2026-05-06 18:54 54.88508 8.59256 908 ft 119 kts 267°
2026-05-06 18:54 54.88463 8.57804 847 ft 120 kts 267°
2026-05-06 18:54 54.88412 8.56360 795 ft 120 kts 266°
2026-05-06 18:54 54.88360 8.54925 744 ft 119 kts 266°
2026-05-06 18:55 54.88310 8.53515 728 ft 116 kts 266°
2026-05-06 18:55 54.88240 8.52103 679 ft 117 kts 261°
2026-05-06 18:55 54.88026 8.50737 639 ft 117 kts 250°
2026-05-06 18:55 54.87697 8.49469 625 ft 111 kts 242°
2026-05-06 18:56 54.87326 8.48356 532 ft 103 kts 240°
2026-05-06 18:56 54.86992 8.47310 493 ft 96 kts 242°
2026-05-06 18:56 54.86677 8.46341 476 ft 88 kts 243°
2026-05-06 18:56 54.86539 8.45478 581 ft 70 kts 262°
2026-05-06 18:57 54.86453 8.44638 573 ft 69 kts 263°
2026-05-06 18:57 54.86441 8.43846 581 ft 63 kts 269°
2026-05-06 18:57 54.86483 8.43082 543 ft 67 kts 279°
2026-05-06 18:57 54.86601 8.42262 500 ft 71 kts 288°
2026-05-06 18:58 54.86743 8.41444 486 ft 71 kts 281°
2026-05-06 18:58 54.86878 8.40634 476 ft 71 kts 287°
2026-05-06 18:58 54.87095 8.39870 464 ft 70 kts 302°
2026-05-06 18:58 54.87398 8.39200 436 ft 71 kts 311°
2026-05-06 18:59 54.87722 8.38577 414 ft 71 kts 311°
2026-05-06 18:59 54.88096 8.38020 388 ft 72 kts 321°
2026-05-06 18:59 54.88361 8.37667 384 ft 72 kts 322°
2026-05-06 18:59 54.88943 8.36991 305 ft 74 kts 323°
2026-05-06 19:00 54.89355 8.36491 261 ft 71 kts 321°
2026-05-06 19:00 54.89617 8.36149 232 ft 70 kts 321°
2026-05-06 19:00 54.90145 8.35501 148 ft 69 kts 322°
2026-05-06 19:00 54.90397 8.35189 86 ft 65 kts 322°
2026-05-06 19:01 54.90707 8.34805 50 ft 43 kts 324°
2026-05-06 19:01 54.90907 8.34562 52 ft 27 kts 323°
2026-05-06 19:01 54.91028 8.34409 53 ft 17 kts 323°
2026-05-06 19:01 54.91137 8.34276 53 ft 21 kts 324°
2026-05-06 19:02 54.91242 8.34145 53 ft 16 kts 323°
2026-05-06 19:02 54.91301 8.34039 51 ft 11 kts 268°
2026-05-06 19:02 54.91285 8.33934 50 ft 9 kts 248°
2026-05-06 19:02 54.91251 8.33830 49 ft 8 kts 238°
2026-05-06 19:03 54.91212 8.33714 49 ft 12 kts 240°
2026-05-06 19:03 54.91166 8.33577 49 ft 15 kts 240°
2026-05-06 19:03 54.91115 8.33426 49 ft 13 kts 239°
2026-05-06 19:03 54.91070 8.33293 50 ft 12 kts 240°
2026-05-06 19:04 54.91033 8.33183 50 ft 9 kts 238°
2026-05-06 19:04 54.91005 8.33099 51 ft 6 kts 252°
2026-05-06 19:04 54.91013 8.33019 51 ft 7 kts 295°
2026-05-06 19:04 54.91033 8.32961 51 ft 6 kts 308°
2026-05-06 19:05 54.91066 8.32895 51 ft 7 kts 312°
2026-05-06 19:05 54.91099 8.32832 51 ft 6 kts 312°
2026-05-06 19:05 54.91127 8.32778 51 ft 6 kts 311°
2026-05-06 19:05 54.91158 8.32710 51 ft 9 kts 312°
2026-05-06 19:06 54.91194 8.32648 51 ft 6 kts 315°
2026-05-06 19:06 54.91204 8.32591 51 ft 4 kts 250°
2026-05-06 19:06 54.91194 8.32553 51 ft 4 kts 245°
2026-05-06 19:06 54.91189 8.32537 51 ft 0 kts 242°
2026-05-06 19:08 54.91189 8.32536 51 ft 0 kts 227°